Accueil
METAR-TAF:

METAR-TAF

Aéroports :

Dübendorf, Suisse

latitude: 47-23-55N, longitude: 8-38-53E, altitude: 448 m

Observation

Le bulletin a été fait il y a 38 minutes, à 02:50 UTC
Vent 1 kt de direction variable
Température 6°C
Humidité 93%
Pression 1016 hPa
Visibilité 10 km ou plus
Nuages épars à une hauteur de 10000 ft

METAR: LSMD 190250Z AUTO VRB01KT 9999NDV SCT100 06/05 Q1016 RMK

Heure: 05:28 (03:28 UTC)


TAF: absent

Observations et prévisions météorologiques de plus de 4000 aéroports (messages METAR et TAF).

Les stations disponibles sont représentées par des disques jaunes et rouges sur la carte.

Passer la souris dessus pour voir le nom de la station.

Cliquer dessus pour voir les observations et prévisions météorologiques.

Pour changer de carte: cliquez sur les boutons verts avec une croix noire pour zoomer, sur le bouton vert avec un tiret pour effectuer un zoom arrière, ou sur les flèches vertes pour les cartes adjacentes.


METAR-TAF: